contact:dominique.lefevre@mio.osupytheas.fr, maurice.libes@osupytheas.fr, didier.mallarino@osupytheas.fr
Project:EMSO http://www.emso-fr.org/EMSO-France
Depth: 2436.0 m
Title:EMSO Ligure Ouest : Data MII capteur MICROCAT
DateTime_Computer,Latitude,Longitude,Temperature,Conductivity,Pressure,DateTime_Instrument
DateTime_Computer,Latitude,Longitude,degC,S m-1,dbar,DateTime_Instrument
2023-04-10T00:00:11Z,42.805,6.029,13.3061,4.60126,2470.67,2023-4-10T02:03:05Z
2023-04-10T00:03:14Z,42.805,6.029,13.3084,4.60098,2470.707,2023-4-10T02:06:08Z
2023-04-10T00:06:17Z,42.805,6.029,13.3027,4.60092,2470.717,2023-4-10T02:09:11Z
2023-04-10T00:09:20Z,42.805,6.029,13.3034,4.60082,2470.67,2023-4-10T02:12:14Z
2023-04-10T00:12:23Z,42.805,6.029,13.3028,4.60084,2470.754,2023-4-10T02:15:17Z
2023-04-10T00:15:26Z,42.805,6.029,13.3023,4.60084,2470.707,2023-4-10T02:18:20Z
2023-04-10T00:18:29Z,42.805,6.029,13.3021,4.60083,2470.754,2023-4-10T02:21:23Z
2023-04-10T00:21:33Z,42.805,6.029,13.3024,4.60087,2470.717,2023-4-10T02:24:26Z
2023-04-10T00:24:36Z,42.805,6.029,13.3029,4.60081,2470.693,2023-4-10T02:27:29Z
2023-04-10T00:27:39Z,42.805,6.029,13.3024,4.60084,2470.707,2023-4-10T02:30:32Z
2023-04-10T00:30:42Z,42.805,6.029,13.3019,4.60084,2470.693,2023-4-10T02:33:36Z
2023-04-10T00:33:45Z,42.805,6.029,13.3049,4.60079,2470.693,2023-4-10T02:36:39Z
2023-04-10T00:36:48Z,42.805,6.029,13.3031,4.60082,2470.707,2023-4-10T02:39:42Z
2023-04-10T00:39:51Z,42.805,6.029,13.3024,4.60081,2470.693,2023-4-10T02:42:45Z
2023-04-10T00:42:54Z,42.805,6.029,13.3029,4.60084,2470.693,2023-4-10T02:45:48Z
2023-04-10T00:45:57Z,42.805,6.029,13.3026,4.60080,2470.73,2023-4-10T02:48:51Z
2023-04-10T00:49:00Z,42.805,6.029,13.3021,4.60085,2470.707,2023-4-10T02:51:54Z
2023-04-10T00:52:03Z,42.805,6.029,13.3020,4.60079,2470.717,2023-4-10T02:54:57Z
2023-04-10T00:55:06Z,42.805,6.029,13.3022,4.60081,2470.684,2023-4-10T02:58:00Z
2023-04-10T00:58:10Z,42.805,6.029,13.3022,4.60081,2470.693,2023-4-10T03:01:03Z
2023-04-10T01:01:13Z,42.805,6.029,13.3025,4.60079,2470.684,2023-4-10T03:04:06Z
2023-04-10T01:04:16Z,42.805,6.029,13.3023,4.60081,2470.646,2023-4-10T03:07:09Z
2023-04-10T01:07:19Z,42.805,6.029,13.3024,4.60081,2470.693,2023-4-10T03:10:12Z
2023-04-10T01:10:22Z,42.805,6.029,13.3024,4.60079,2470.67,2023-4-10T03:13:16Z
2023-04-10T01:13:25Z,42.805,6.029,13.3024,4.60081,2470.67,2023-4-10T03:16:19Z
2023-04-10T01:16:28Z,42.805,6.029,13.3023,4.60079,2470.637,2023-4-10T03:19:22Z
2023-04-10T01:19:31Z,42.805,6.029,13.3026,4.60081,2470.684,2023-4-10T03:22:25Z
2023-04-10T01:22:34Z,42.805,6.029,13.3024,4.60082,2470.693,2023-4-10T03:25:28Z
2023-04-10T01:25:37Z,42.805,6.029,13.3024,4.60082,2470.684,2023-4-10T03:28:31Z
2023-04-10T01:28:40Z,42.805,6.029,13.3023,4.60084,2470.693,2023-4-10T03:31:34Z
2023-04-10T01:31:43Z,42.805,6.029,13.3024,4.60080,2470.624,2023-4-10T03:34:37Z
2023-04-10T01:34:46Z,42.805,6.029,13.3027,4.60079,2470.646,2023-4-10T03:37:40Z
2023-04-10T01:37:50Z,42.805,6.029,13.3021,4.60080,2470.693,2023-4-10T03:40:43Z
2023-04-10T01:40:53Z,42.805,6.029,13.3029,4.60084,2470.693,2023-4-10T03:43:46Z
2023-04-10T01:43:56Z,42.805,6.029,13.3026,4.60081,2470.684,2023-4-10T03:46:49Z
2023-04-10T01:46:59Z,42.805,6.029,13.3026,4.60082,2470.67,2023-4-10T03:49:53Z
2023-04-10T01:50:02Z,42.805,6.029,13.3034,4.60085,2470.684,2023-4-10T03:52:56Z
2023-04-10T01:53:05Z,42.805,6.029,13.3026,4.60082,2470.661,2023-4-10T03:55:59Z
2023-04-10T01:56:08Z,42.805,6.029,13.3029,4.60083,2470.67,2023-4-10T03:59:02Z
2023-04-10T01:59:11Z,42.805,6.029,13.3030,4.60082,2470.661,2023-4-10T04:02:05Z
2023-04-10T02:02:14Z,42.805,6.029,13.3026,4.60082,2470.646,2023-4-10T04:05:08Z
2023-04-10T02:05:17Z,42.805,6.029,13.3029,4.60085,2470.684,2023-4-10T04:08:11Z
2023-04-10T02:08:20Z,42.805,6.029,13.3054,4.60097,2470.67,2023-4-10T04:11:14Z
2023-04-10T02:11:23Z,42.805,6.029,13.3041,4.60110,2470.637,2023-4-10T04:14:17Z
2023-04-10T02:14:27Z,42.805,6.029,13.3044,4.60108,2470.646,2023-4-10T04:17:20Z
2023-04-10T02:17:30Z,42.805,6.029,13.3030,4.60092,2470.661,2023-4-10T04:20:23Z
2023-04-10T02:20:33Z,42.805,6.029,13.3041,4.60091,2470.624,2023-4-10T04:23:26Z
2023-04-10T02:23:36Z,42.805,6.029,13.3042,4.60098,2470.646,2023-4-10T04:26:30Z
2023-04-10T02:26:39Z,42.805,6.029,13.3049,4.60107,2470.661,2023-4-10T04:29:33Z
2023-04-10T02:29:42Z,42.805,6.029,13.3039,4.60104,2470.684,2023-4-10T04:32:36Z
2023-04-10T02:32:45Z,42.805,6.029,13.3046,4.60116,2470.624,2023-4-10T04:35:39Z
2023-04-10T02:35:48Z,42.805,6.029,13.3044,4.60100,2470.624,2023-4-10T04:38:42Z
2023-04-10T02:38:51Z,42.805,6.029,13.3046,4.60106,2470.646,2023-4-10T04:41:45Z
2023-04-10T02:41:54Z,42.805,6.029,13.3050,4.60107,2470.646,2023-4-10T04:44:48Z
2023-04-10T02:44:57Z,42.805,6.029,13.3050,4.60120,2470.637,2023-4-10T04:47:51Z
2023-04-10T02:48:00Z,42.805,6.029,13.3050,4.60103,2470.624,2023-4-10T04:50:54Z
2023-04-10T02:51:03Z,42.805,6.029,13.3048,4.60099,2470.637,2023-4-10T04:53:57Z
2023-04-10T02:54:07Z,42.805,6.029,13.3052,4.60143,2470.637,2023-4-10T04:57:00Z
2023-04-10T02:57:10Z,42.805,6.029,13.3049,4.60131,2470.624,2023-4-10T05:00:03Z
2023-04-10T03:00:13Z,42.805,6.029,13.3051,4.60137,2470.624,2023-4-10T05:03:07Z
2023-04-10T03:03:16Z,42.805,6.029,13.3056,4.60130,2470.624,2023-4-10T05:06:10Z
2023-04-10T03:06:19Z,42.805,6.029,13.3056,4.60127,2470.624,2023-4-10T05:09:13Z
2023-04-10T03:09:22Z,42.805,6.029,13.3048,4.60162,2470.586,2023-4-10T05:12:16Z
2023-04-10T03:12:25Z,42.805,6.029,13.3054,4.60133,2470.637,2023-4-10T05:15:19Z
2023-04-10T03:15:28Z,42.805,6.029,13.3056,4.60169,2470.6,2023-4-10T05:18:22Z
2023-04-10T03:18:31Z,42.805,6.029,13.3051,4.60155,2470.591,2023-4-10T05:21:25Z
2023-04-10T03:21:34Z,42.805,6.029,13.3044,4.60129,2470.6,2023-4-10T05:24:28Z
2023-04-10T03:24:37Z,42.805,6.029,13.3058,4.60134,2470.614,2023-4-10T05:27:31Z
2023-04-10T03:27:40Z,42.805,6.029,13.3051,4.60105,2470.6,2023-4-10T05:30:34Z
2023-04-10T03:30:43Z,42.805,6.029,13.3046,4.60125,2470.6,2023-4-10T05:33:37Z
2023-04-10T03:33:47Z,42.805,6.029,13.3050,4.60140,2470.637,2023-4-10T05:36:40Z
2023-04-10T03:36:50Z,42.805,6.029,13.3046,4.60132,2470.661,2023-4-10T05:39:43Z
2023-04-10T03:39:53Z,42.805,6.029,13.3045,4.60139,2470.6,2023-4-10T05:42:47Z
2023-04-10T03:42:56Z,42.805,6.029,13.3038,4.60174,2470.637,2023-4-10T05:45:50Z
2023-04-10T03:45:59Z,42.805,6.029,13.3039,4.60147,2470.6,2023-4-10T05:48:53Z
2023-04-10T03:49:02Z,42.805,6.029,13.3048,4.60148,2470.661,2023-4-10T05:51:56Z
2023-04-10T03:52:05Z,42.805,6.029,13.3045,4.60151,2470.637,2023-4-10T05:54:59Z
2023-04-10T03:55:08Z,42.805,6.029,13.3046,4.60124,2470.614,2023-4-10T05:58:02Z
2023-04-10T03:58:11Z,42.805,6.029,13.3039,4.60132,2470.637,2023-4-10T06:01:05Z
2023-04-10T04:01:14Z,42.805,6.029,13.3048,4.60125,2470.624,2023-4-10T06:04:08Z
2023-04-10T04:04:17Z,42.805,6.029,13.3040,4.60128,2470.624,2023-4-10T06:07:11Z
2023-04-10T04:07:20Z,42.805,6.029,13.3045,4.60134,2470.624,2023-4-10T06:10:14Z
2023-04-10T04:10:23Z,42.805,6.029,13.3042,4.60135,2470.624,2023-4-10T06:13:17Z
2023-04-10T04:13:27Z,42.805,6.029,13.3044,4.60134,2470.614,2023-4-10T06:16:20Z
2023-04-10T04:16:30Z,42.805,6.029,13.3039,4.60122,2470.624,2023-4-10T06:19:24Z
2023-04-10T04:19:33Z,42.805,6.029,13.3046,4.60143,2470.661,2023-4-10T06:22:27Z
2023-04-10T04:22:36Z,42.805,6.029,13.3039,4.60154,2470.6,2023-4-10T06:25:30Z
2023-04-10T04:25:39Z,42.805,6.029,13.3050,4.60144,2470.624,2023-4-10T06:28:33Z
2023-04-10T04:28:42Z,42.805,6.029,13.3039,4.60129,2470.6,2023-4-10T06:31:36Z
2023-04-10T04:31:45Z,42.805,6.029,13.3037,4.60123,2470.646,2023-4-10T06:34:39Z
2023-04-10T04:34:48Z,42.805,6.029,13.3044,4.60144,2470.637,2023-4-10T06:37:42Z
2023-04-10T04:37:51Z,42.805,6.029,13.3048,4.60147,2470.577,2023-4-10T06:40:45Z
2023-04-10T04:40:54Z,42.805,6.029,13.3048,4.60138,2470.624,2023-4-10T06:43:48Z
2023-04-10T04:43:57Z,42.805,6.029,13.3046,4.60139,2470.624,2023-4-10T06:46:51Z
2023-04-10T04:47:00Z,42.805,6.029,13.3044,4.60155,2470.637,2023-4-10T06:49:54Z
2023-04-10T04:50:04Z,42.805,6.029,13.3044,4.60155,2470.6,2023-4-10T06:52:57Z
2023-04-10T04:53:07Z,42.805,6.029,13.3038,4.60142,2470.624,2023-4-10T06:56:00Z
2023-04-10T04:56:10Z,42.805,6.029,13.3058,4.60142,2470.614,2023-4-10T06:59:04Z
2023-04-10T04:59:13Z,42.805,6.029,13.3044,4.60139,2470.624,2023-4-10T07:02:07Z
2023-04-10T05:02:16Z,42.805,6.029,13.3040,4.60155,2470.637,2023-4-10T07:05:10Z
2023-04-10T05:05:19Z,42.805,6.029,13.3047,4.60154,2470.614,2023-4-10T07:08:13Z
2023-04-10T05:08:22Z,42.805,6.029,13.3054,4.60165,2470.624,2023-4-10T07:11:16Z
2023-04-10T05:11:25Z,42.805,6.029,13.3054,4.60175,2470.637,2023-4-10T07:14:19Z
2023-04-10T05:14:28Z,42.805,6.029,13.3054,4.60157,2470.646,2023-4-10T07:17:22Z
2023-04-10T05:17:31Z,42.805,6.029,13.3054,4.60149,2470.624,2023-4-10T07:20:25Z
2023-04-10T05:20:34Z,42.805,6.029,13.3051,4.60144,2470.637,2023-4-10T07:23:28Z
2023-04-10T05:23:37Z,42.805,6.029,13.3043,4.60160,2470.624,2023-4-10T07:26:31Z
2023-04-10T05:26:41Z,42.805,6.029,13.3052,4.60146,2470.646,2023-4-10T07:29:34Z
2023-04-10T05:29:44Z,42.805,6.029,13.3040,4.60138,2470.624,2023-4-10T07:32:37Z
2023-04-10T05:32:47Z,42.805,6.029,13.3048,4.60144,2470.637,2023-4-10T07:35:41Z
2023-04-10T05:35:50Z,42.805,6.029,13.3043,4.60128,2470.637,2023-4-10T07:38:44Z
2023-04-10T05:38:53Z,42.805,6.029,13.3050,4.60142,2470.637,2023-4-10T07:41:47Z
2023-04-10T05:41:56Z,42.805,6.029,13.3045,4.60150,2470.661,2023-4-10T07:44:50Z
2023-04-10T05:44:59Z,42.805,6.029,13.3059,4.60151,2470.661,2023-4-10T07:47:53Z
2023-04-10T05:48:02Z,42.805,6.029,13.3046,4.60155,2470.624,2023-4-10T07:50:56Z
2023-04-10T05:51:05Z,42.805,6.029,13.3048,4.60154,2470.637,2023-4-10T07:53:59Z
2023-04-10T05:54:08Z,42.805,6.029,13.3053,4.60140,2470.637,2023-4-10T07:57:02Z
2023-04-10T05:57:11Z,42.805,6.029,13.3047,4.60152,2470.646,2023-4-10T08:00:05Z
2023-04-10T06:00:14Z,42.805,6.029,13.3052,4.60162,2470.646,2023-4-10T08:03:08Z
2023-04-10T06:03:17Z,42.805,6.029,13.3043,4.60162,2470.624,2023-4-10T08:06:11Z
2023-04-10T06:06:21Z,42.805,6.029,13.3049,4.60155,2470.661,2023-4-10T08:09:14Z
2023-04-10T06:09:24Z,42.805,6.029,13.3047,4.60195,2470.661,2023-4-10T08:12:17Z
2023-04-10T06:12:27Z,42.805,6.029,13.3053,4.60146,2470.67,2023-4-10T08:15:21Z
2023-04-10T06:15:30Z,42.805,6.029,13.3049,4.60140,2470.646,2023-4-10T08:18:24Z
2023-04-10T06:18:33Z,42.805,6.029,13.3041,4.60142,2470.693,2023-4-10T08:21:27Z
2023-04-10T06:21:36Z,42.805,6.029,13.3037,4.60152,2470.684,2023-4-10T08:24:30Z
2023-04-10T06:24:39Z,42.805,6.029,13.3059,4.60157,2470.661,2023-4-10T08:27:33Z
2023-04-10T06:27:42Z,42.805,6.029,13.3059,4.60134,2470.67,2023-4-10T08:30:36Z
2023-04-10T06:30:46Z,42.805,6.029,13.3055,4.60165,2470.684,2023-4-10T08:33:40Z
2023-04-10T06:33:49Z,42.805,6.029,13.3048,4.60145,2470.67,2023-4-10T08:36:43Z
2023-04-10T06:36:52Z,42.805,6.029,13.3042,4.60135,2470.684,2023-4-10T08:39:46Z
2023-04-10T06:39:55Z,42.805,6.029,13.3057,4.60128,2470.646,2023-4-10T08:42:49Z
2023-04-10T06:42:58Z,42.805,6.029,13.3048,4.60136,2470.67,2023-4-10T08:45:52Z
2023-04-10T06:46:02Z,42.805,6.029,13.3041,4.60138,2470.67,2023-4-10T08:48:55Z
2023-04-10T06:49:05Z,42.805,6.029,13.3056,4.60167,2470.693,2023-4-10T08:51:59Z
2023-04-10T06:52:08Z,42.805,6.029,13.3045,4.60163,2470.693,2023-4-10T08:55:02Z
2023-04-10T06:55:11Z,42.805,6.029,13.3054,4.60155,2470.67,2023-4-10T08:58:05Z
2023-04-10T06:58:14Z,42.805,6.029,13.3048,4.60157,2470.684,2023-4-10T09:01:08Z
2023-04-10T07:01:17Z,42.805,6.029,13.3057,4.60133,2470.684,2023-4-10T09:04:11Z
2023-04-10T07:04:20Z,42.805,6.029,13.3047,4.60160,2470.67,2023-4-10T09:07:14Z
2023-04-10T07:07:23Z,42.805,6.029,13.3051,4.60155,2470.693,2023-4-10T09:10:17Z
2023-04-10T07:10:26Z,42.805,6.029,13.3061,4.60180,2470.693,2023-4-10T09:13:20Z
2023-04-10T07:13:29Z,42.805,6.029,13.3053,4.60162,2470.693,2023-4-10T09:16:23Z
2023-04-10T07:16:32Z,42.805,6.029,13.3062,4.60161,2470.717,2023-4-10T09:19:26Z
2023-04-10T07:19:35Z,42.805,6.029,13.3044,4.60151,2470.67,2023-4-10T09:22:29Z
2023-04-10T07:22:38Z,42.805,6.029,13.3042,4.60136,2470.693,2023-4-10T09:25:32Z
2023-04-10T07:25:42Z,42.805,6.029,13.3043,4.60144,2470.693,2023-4-10T09:28:35Z
2023-04-10T07:28:45Z,42.805,6.029,13.3051,4.60149,2470.693,2023-4-10T09:31:39Z
2023-04-10T07:31:48Z,42.805,6.029,13.3067,4.60178,2470.693,2023-4-10T09:34:42Z
2023-04-10T07:34:51Z,42.805,6.029,13.3063,4.60161,2470.684,2023-4-10T09:37:45Z
2023-04-10T07:37:54Z,42.805,6.029,13.3055,4.60137,2470.717,2023-4-10T09:40:48Z
2023-04-10T07:40:57Z,42.805,6.029,13.3067,4.60159,2470.717,2023-4-10T09:43:51Z
2023-04-10T07:44:00Z,42.805,6.029,13.3050,4.60155,2470.754,2023-4-10T09:46:54Z
2023-04-10T07:47:03Z,42.805,6.029,13.3065,4.60133,2470.73,2023-4-10T09:49:57Z
2023-04-10T07:50:06Z,42.805,6.029,13.3054,4.60162,2470.754,2023-4-10T09:53:00Z
2023-04-10T07:53:09Z,42.805,6.029,13.3059,4.60164,2470.717,2023-4-10T09:56:03Z
2023-04-10T07:56:12Z,42.805,6.029,13.3046,4.60193,2470.74,2023-4-10T09:59:06Z
2023-04-10T07:59:15Z,42.805,6.029,13.3041,4.60158,2470.754,2023-4-10T10:02:09Z
2023-04-10T08:02:18Z,42.805,6.029,13.3049,4.60131,2470.74,2023-4-10T10:05:12Z
2023-04-10T08:05:22Z,42.805,6.029,13.3040,4.60120,2470.717,2023-4-10T10:08:16Z
2023-04-10T08:08:25Z,42.805,6.029,13.3035,4.60117,2470.74,2023-4-10T10:11:19Z
2023-04-10T08:11:28Z,42.805,6.029,13.3039,4.60105,2470.763,2023-4-10T10:14:22Z
2023-04-10T08:14:31Z,42.805,6.029,13.3040,4.60114,2470.74,2023-4-10T10:17:25Z
2023-04-10T08:17:34Z,42.805,6.029,13.3035,4.60137,2470.74,2023-4-10T10:20:28Z
2023-04-10T08:20:37Z,42.805,6.029,13.3035,4.60129,2470.763,2023-4-10T10:23:31Z
2023-04-10T08:23:40Z,42.805,6.029,13.3048,4.60135,2470.763,2023-4-10T10:26:34Z
2023-04-10T08:26:43Z,42.805,6.029,13.3038,4.60129,2470.777,2023-4-10T10:29:37Z
2023-04-10T08:29:46Z,42.805,6.029,13.3034,4.60144,2470.763,2023-4-10T10:32:40Z
2023-04-10T08:32:49Z,42.805,6.029,13.3039,4.60152,2470.754,2023-4-10T10:35:43Z
2023-04-10T08:35:52Z,42.805,6.029,13.3043,4.60166,2470.763,2023-4-10T10:38:46Z
2023-04-10T08:38:56Z,42.805,6.029,13.3044,4.60142,2470.754,2023-4-10T10:41:50Z
2023-04-10T08:41:59Z,42.805,6.029,13.3045,4.60111,2470.763,2023-4-10T10:44:53Z
2023-04-10T08:45:02Z,42.805,6.029,13.3040,4.60126,2470.777,2023-4-10T10:47:56Z
2023-04-10T08:48:05Z,42.805,6.029,13.3039,4.60127,2470.74,2023-4-10T10:50:59Z
2023-04-10T08:51:08Z,42.805,6.029,13.3045,4.60145,2470.8,2023-4-10T10:54:02Z
2023-04-10T08:54:11Z,42.805,6.029,13.3064,4.60152,2470.74,2023-4-10T10:57:05Z
2023-04-10T08:57:14Z,42.805,6.029,13.3096,4.60191,2470.74,2023-4-10T11:00:08Z
2023-04-10T09:00:17Z,42.805,6.029,13.3080,4.60151,2470.74,2023-4-10T11:03:11Z
2023-04-10T09:03:20Z,42.805,6.029,13.3085,4.60159,2470.74,2023-4-10T11:06:14Z
2023-04-10T09:06:23Z,42.805,6.029,13.3089,4.60172,2470.74,2023-4-10T11:09:17Z
2023-04-10T09:09:26Z,42.805,6.029,13.3090,4.60190,2470.754,2023-4-10T11:12:20Z
2023-04-10T09:12:29Z,42.805,6.029,13.3101,4.60155,2470.763,2023-4-10T11:15:23Z
2023-04-10T09:15:33Z,42.805,6.029,13.3102,4.60160,2470.74,2023-4-10T11:18:27Z
2023-04-10T09:18:36Z,42.805,6.029,13.3106,4.60173,2470.754,2023-4-10T11:21:30Z
2023-04-10T09:21:39Z,42.805,6.029,13.3099,4.60112,2470.74,2023-4-10T11:24:33Z
2023-04-10T09:24:42Z,42.805,6.029,13.3106,4.60117,2470.763,2023-4-10T11:27:36Z
2023-04-10T09:27:45Z,42.805,6.029,13.3088,4.60137,2470.763,2023-4-10T11:30:39Z
2023-04-10T09:30:48Z,42.805,6.029,13.3084,4.60170,2470.763,2023-4-10T11:33:42Z
2023-04-10T09:33:51Z,42.805,6.029,13.3054,4.60115,2470.763,2023-4-10T11:36:45Z
2023-04-10T09:36:54Z,42.805,6.029,13.3058,4.60167,2470.777,2023-4-10T11:39:48Z
2023-04-10T09:39:57Z,42.805,6.029,13.3063,4.60179,2470.74,2023-4-10T11:42:51Z
2023-04-10T09:43:00Z,42.805,6.029,13.3051,4.60185,2470.777,2023-4-10T11:45:54Z
2023-04-10T09:46:03Z,42.805,6.029,13.3063,4.60205,2470.787,2023-4-10T11:48:57Z
2023-04-10T09:49:06Z,42.805,6.029,13.3070,4.60148,2470.777,2023-4-10T11:52:00Z
2023-04-10T09:52:10Z,42.805,6.029,13.3090,4.60150,2470.763,2023-4-10T11:55:04Z
2023-04-10T09:55:13Z,42.805,6.029,13.3096,4.60159,2470.754,2023-4-10T11:58:07Z
2023-04-10T09:58:16Z,42.805,6.029,13.3087,4.60143,2470.73,2023-4-10T12:01:10Z
2023-04-10T10:01:19Z,42.805,6.029,13.3091,4.60166,2470.754,2023-4-10T12:04:13Z
2023-04-10T10:04:22Z,42.805,6.029,13.3094,4.60152,2470.763,2023-4-10T12:07:16Z
2023-04-10T10:07:25Z,42.805,6.029,13.3094,4.60145,2470.777,2023-4-10T12:10:19Z
2023-04-10T10:10:28Z,42.805,6.029,13.3111,4.60116,2470.717,2023-4-10T12:13:22Z
2023-04-10T10:13:31Z,42.805,6.029,13.3128,4.60101,2470.73,2023-4-10T12:16:25Z
2023-04-10T10:16:34Z,42.805,6.029,13.3120,4.60100,2470.754,2023-4-10T12:19:28Z
2023-04-10T10:19:37Z,42.805,6.029,13.3083,4.60098,2470.754,2023-4-10T12:22:31Z
2023-04-10T10:22:40Z,42.805,6.029,13.3076,4.60094,2470.754,2023-4-10T12:25:34Z
2023-04-10T10:25:44Z,42.805,6.029,13.3086,4.60117,2470.754,2023-4-10T12:28:37Z
2023-04-10T10:28:47Z,42.805,6.029,13.3085,4.60126,2470.754,2023-4-10T12:31:41Z
2023-04-10T10:31:50Z,42.805,6.029,13.3089,4.60110,2470.754,2023-4-10T12:34:44Z
2023-04-10T10:34:53Z,42.805,6.029,13.3034,4.60097,2470.754,2023-4-10T12:37:47Z
2023-04-10T10:37:56Z,42.805,6.029,13.3030,4.60104,2470.74,2023-4-10T12:40:50Z
2023-04-10T10:40:59Z,42.805,6.029,13.3029,4.60111,2470.754,2023-4-10T12:43:53Z
2023-04-10T10:44:02Z,42.805,6.029,13.3029,4.60095,2470.73,2023-4-10T12:46:56Z
2023-04-10T10:47:05Z,42.805,6.029,13.3029,4.60093,2470.74,2023-4-10T12:49:59Z
2023-04-10T10:50:08Z,42.805,6.029,13.3030,4.60089,2470.717,2023-4-10T12:53:02Z
2023-04-10T10:53:11Z,42.805,6.029,13.3029,4.60092,2470.74,2023-4-10T12:56:05Z
2023-04-10T10:56:14Z,42.805,6.029,13.3029,4.60089,2470.754,2023-4-10T12:59:08Z
2023-04-10T10:59:17Z,42.805,6.029,13.3028,4.60087,2470.74,2023-4-10T13:02:11Z
2023-04-10T11:02:20Z,42.805,6.029,13.3029,4.60091,2470.74,2023-4-10T13:05:14Z
2023-04-10T11:05:24Z,42.805,6.029,13.3026,4.60090,2470.693,2023-4-10T13:08:18Z
2023-04-10T11:08:27Z,42.805,6.029,13.3028,4.60088,2470.717,2023-4-10T13:11:21Z
2023-04-10T11:11:30Z,42.805,6.029,13.3031,4.60087,2470.717,2023-4-10T13:14:24Z
2023-04-10T11:14:33Z,42.805,6.029,13.3024,4.60092,2470.73,2023-4-10T13:17:27Z
2023-04-10T11:17:36Z,42.805,6.029,13.3031,4.60088,2470.717,2023-4-10T13:20:30Z
2023-04-10T11:20:39Z,42.805,6.029,13.3052,4.60100,2470.717,2023-4-10T13:23:33Z
2023-04-10T11:23:42Z,42.805,6.029,13.3057,4.60132,2470.74,2023-4-10T13:26:36Z
2023-04-10T11:26:45Z,42.805,6.029,13.3031,4.60107,2470.707,2023-4-10T13:29:39Z
2023-04-10T11:29:48Z,42.805,6.029,13.3029,4.60102,2470.73,2023-4-10T13:32:42Z
2023-04-10T11:32:51Z,42.805,6.029,13.3029,4.60098,2470.693,2023-4-10T13:35:45Z
2023-04-10T11:35:54Z,42.805,6.029,13.3026,4.60097,2470.73,2023-4-10T13:38:48Z
2023-04-10T11:38:58Z,42.805,6.029,13.3029,4.60102,2470.726,2023-4-10T13:41:52Z
2023-04-10T11:42:01Z,42.805,6.029,13.3031,4.60099,2470.693,2023-4-10T13:44:55Z
2023-04-10T11:45:04Z,42.805,6.029,13.3028,4.60092,2470.693,2023-4-10T13:47:58Z
2023-04-10T11:48:07Z,42.805,6.029,13.3032,4.60087,2470.693,2023-4-10T13:51:01Z
2023-04-10T11:51:10Z,42.805,6.029,13.3037,4.60110,2470.717,2023-4-10T13:54:04Z
2023-04-10T11:54:13Z,42.805,6.029,13.3045,4.60107,2470.693,2023-4-10T13:57:07Z
2023-04-10T11:57:16Z,42.805,6.029,13.3051,4.60122,2470.67,2023-4-10T14:00:10Z
2023-04-10T12:00:19Z,42.805,6.029,13.3062,4.60094,2470.693,2023-4-10T14:03:13Z
2023-04-10T12:03:22Z,42.805,6.029,13.3028,4.60089,2470.67,2023-4-10T14:06:16Z
2023-04-10T12:06:25Z,42.805,6.029,13.3031,4.60096,2470.707,2023-4-10T14:09:19Z
2023-04-10T12:09:28Z,42.805,6.029,13.3037,4.60111,2470.67,2023-4-10T14:12:22Z
2023-04-10T12:12:31Z,42.805,6.029,13.3051,4.60097,2470.693,2023-4-10T14:15:25Z
2023-04-10T12:15:35Z,42.805,6.029,13.3059,4.60113,2470.67,2023-4-10T14:18:29Z
2023-04-10T12:18:38Z,42.805,6.029,13.3058,4.60122,2470.684,2023-4-10T14:21:32Z
2023-04-10T12:21:41Z,42.805,6.029,13.3058,4.60173,2470.661,2023-4-10T14:24:35Z
2023-04-10T12:24:44Z,42.805,6.029,13.3034,4.60113,2470.67,2023-4-10T14:27:38Z
2023-04-10T12:27:47Z,42.805,6.029,13.3039,4.60099,2470.684,2023-4-10T14:30:41Z
2023-04-10T12:30:51Z,42.805,6.029,13.3029,4.60102,2470.693,2023-4-10T14:33:45Z
2023-04-10T12:33:55Z,42.805,6.029,13.3026,4.60091,2470.684,2023-4-10T14:36:49Z
2023-04-10T12:36:58Z,42.805,6.029,13.3026,4.60087,2470.693,2023-4-10T14:39:52Z
2023-04-10T12:40:01Z,42.805,6.029,13.3029,4.60087,2470.661,2023-4-10T14:42:55Z
2023-04-10T12:43:04Z,42.805,6.029,13.3030,4.60090,2470.67,2023-4-10T14:45:58Z
2023-04-10T12:46:07Z,42.805,6.029,13.3026,4.60092,2470.646,2023-4-10T14:49:01Z
2023-04-10T12:49:10Z,42.805,6.029,13.3028,4.60087,2470.684,2023-4-10T14:52:04Z
2023-04-10T12:52:13Z,42.805,6.029,13.3026,4.60087,2470.707,2023-4-10T14:55:07Z
2023-04-10T12:55:16Z,42.805,6.029,13.3024,4.60094,2470.661,2023-4-10T14:58:10Z
2023-04-10T12:58:19Z,42.805,6.029,13.3029,4.60093,2470.646,2023-4-10T15:01:13Z
2023-04-10T13:01:22Z,42.805,6.029,13.3026,4.60087,2470.661,2023-4-10T15:04:16Z
2023-04-10T13:04:25Z,42.805,6.029,13.3029,4.60088,2470.61,2023-4-10T15:07:19Z
2023-04-10T13:07:28Z,42.805,6.029,13.3029,4.60094,2470.624,2023-4-10T15:10:23Z
2023-04-10T13:10:32Z,42.805,6.029,13.3032,4.60096,2470.624,2023-4-10T15:13:26Z
2023-04-10T13:13:35Z,42.805,6.029,13.3028,4.60090,2470.614,2023-4-10T15:16:29Z
2023-04-10T13:16:38Z,42.805,6.029,13.3029,4.60087,2470.646,2023-4-10T15:19:32Z
2023-04-10T13:19:41Z,42.805,6.029,13.3024,4.60087,2470.6,2023-4-10T15:22:35Z
2023-04-10T13:22:44Z,42.805,6.029,13.3027,4.60086,2470.646,2023-4-10T15:25:38Z
2023-04-10T13:25:47Z,42.805,6.029,13.3026,4.60086,2470.637,2023-4-10T15:28:41Z
2023-04-10T13:28:50Z,42.805,6.029,13.3027,4.60086,2470.624,2023-4-10T15:31:44Z
2023-04-10T13:31:53Z,42.805,6.029,13.3024,4.60087,2470.637,2023-4-10T15:34:47Z
2023-04-10T13:34:56Z,42.805,6.029,13.3030,4.60087,2470.637,2023-4-10T15:37:50Z
2023-04-10T13:37:59Z,42.805,6.029,13.3027,4.60088,2470.624,2023-4-10T15:40:53Z
2023-04-10T13:41:02Z,42.805,6.029,13.3028,4.60088,2470.624,2023-4-10T15:43:56Z
2023-04-10T13:44:05Z,42.805,6.029,13.3024,4.60093,2470.6,2023-4-10T15:47:00Z
2023-04-10T13:47:09Z,42.805,6.029,13.3029,4.60088,2470.6,2023-4-10T15:50:03Z
2023-04-10T13:50:12Z,42.805,6.029,13.3030,4.60089,2470.614,2023-4-10T15:53:06Z
2023-04-10T13:53:15Z,42.805,6.029,13.3030,4.60104,2470.624,2023-4-10T15:56:09Z
2023-04-10T13:56:18Z,42.805,6.029,13.3034,4.60094,2470.637,2023-4-10T15:59:12Z
2023-04-10T13:59:21Z,42.805,6.029,13.3026,4.60087,2470.624,2023-4-10T16:02:15Z
2023-04-10T14:02:24Z,42.805,6.029,13.3031,4.60089,2470.637,2023-4-10T16:05:18Z
2023-04-10T14:05:27Z,42.805,6.029,13.3033,4.60089,2470.6,2023-4-10T16:08:21Z
2023-04-10T14:08:30Z,42.805,6.029,13.3029,4.60088,2470.6,2023-4-10T16:11:24Z
2023-04-10T14:11:33Z,42.805,6.029,13.3026,4.60091,2470.624,2023-4-10T16:14:27Z
2023-04-10T14:14:36Z,42.805,6.029,13.3029,4.60090,2470.646,2023-4-10T16:17:30Z
2023-04-10T14:17:39Z,42.805,6.029,13.3030,4.60093,2470.624,2023-4-10T16:20:33Z
2023-04-10T14:20:42Z,42.805,6.029,13.3033,4.60087,2470.624,2023-4-10T16:23:37Z
2023-04-10T14:23:46Z,42.805,6.029,13.3032,4.60087,2470.624,2023-4-10T16:26:40Z
2023-04-10T14:26:49Z,42.805,6.029,13.3029,4.60088,2470.6,2023-4-10T16:29:43Z
2023-04-10T14:29:52Z,42.805,6.029,13.3031,4.60090,2470.637,2023-4-10T16:32:46Z
2023-04-10T14:32:54Z,42.805,6.029,13.3032,4.60088,2470.624,2023-4-10T16:35:48Z
2023-04-10T14:35:57Z,42.805,6.029,13.3036,4.60089,2470.614,2023-4-10T16:38:52Z
2023-04-10T14:39:01Z,42.805,6.029,13.3039,4.60091,2470.6,2023-4-10T16:41:55Z
2023-04-10T14:42:04Z,42.805,6.029,13.3037,4.60092,2470.6,2023-4-10T16:44:58Z
2023-04-10T14:45:07Z,42.805,6.029,13.3029,4.60088,2470.624,2023-4-10T16:48:01Z
2023-04-10T14:48:10Z,42.805,6.029,13.3036,4.60116,2470.577,2023-4-10T16:51:04Z
2023-04-10T14:51:13Z,42.805,6.029,13.3058,4.60107,2470.6,2023-4-10T16:54:07Z
2023-04-10T14:54:16Z,42.805,6.029,13.3054,4.60133,2470.591,2023-4-10T16:57:10Z
2023-04-10T14:57:19Z,42.805,6.029,13.3046,4.60145,2470.6,2023-4-10T17:00:13Z
2023-04-10T15:00:22Z,42.805,6.029,13.3032,4.60089,2470.624,2023-4-10T17:03:16Z
2023-04-10T15:03:25Z,42.805,6.029,13.3058,4.60120,2470.577,2023-4-10T17:06:19Z
2023-04-10T15:06:28Z,42.805,6.029,13.3046,4.60115,2470.6,2023-4-10T17:09:22Z
2023-04-10T15:09:31Z,42.805,6.029,13.3051,4.60122,2470.591,2023-4-10T17:12:25Z
2023-04-10T15:12:34Z,42.805,6.029,13.3054,4.60113,2470.591,2023-4-10T17:15:29Z